Location: Bauru
(22.3170°S, 49.0670°W)
Time: 02:27:27
(UTC-03:00)

Hubble Space Telescope - Visible Passes

Search period start: 21 October 2018 00:00
Search period end: 31 October 2018 00:00
Orbit: 537 x 541 km, 28.5° (Epoch: 20 October)

Date Brightness Start Highest point End Pass type
(mag) Time Alt. Az. Time Alt. Az. Time Alt. Az.
21 Oct 1.2 19:27:29 10° W 19:31:33 52° NNW 19:33:22 29° NE visible
22 Oct 1.7 19:17:13 10° W 19:21:07 39° NNW 19:23:42 18° NE visible
23 Oct 2.2 19:07:01 10° W 19:10:41 30° NNW 19:14:04 11° NNE visible
24 Oct 2.7 18:56:56 10° W 19:00:13 23° NNW 19:03:30 10° NNE visible
25 Oct 3.1 18:47:01 10° WNW 18:49:45 17° NNW 18:52:29 10° NNE visible
